Simultaneous Nadir Overpasses (SNOs) Predictions

Prediction of SNOs between GOES-16 and NOAA-21 Satellite Orbit:

Table of predicted SNOs for the next 14.0 days since TLE Epoch: 8/2/2024
Index Date Time (GOES-16) GOES-16 Lat,Lon NOAA-21 Lat,Lon Distance(km) Time Diff (sec)
1 08/04/2024 06:32:43 0.05, -75.20 0.32, -76.51 149.07 80
2 08/05/2024 06:11:18 0.05, -75.21 -0.67, -71.98 367.95 80
3 08/06/2024 18:33:15 -0.05, -75.22 -0.51, -77.28 234.54 80
4 08/07/2024 18:17:12 -0.05, -75.24 0.54, -72.76 283.08 80
5 08/09/2024 06:39:00 0.04, -75.25 0.65, -78.02 315.70 80
6 08/10/2024 06:17:36 0.04, -75.26 -0.34, -73.49 202.21 80
7 08/11/2024 18:39:33 -0.04, -75.29 -0.82, -78.80 399.27 80
8 08/12/2024 18:23:29 -0.04, -75.31 0.18, -74.26 118.80 80
9 08/14/2024 06:45:17 0.03, -75.33 1.00, -79.53 479.55 80
10 08/15/2024 06:23:53 0.03, -75.34 -0.06, -75.01 38.52 80
